(185341) = 2006 VB38 = 2005 LB16

Discovered at Catalina on 2006-11-12 by CSS.

Orbit

Orbit type: Main Belt

Note: WebGL enabled browser required.

epoch2023-09-13.0
epoch JD2460200.5
perihelion date2022-03-14.83629
perihelion JD2459653.33629
argument of perihelion (°)328.18869
ascending node (°)223.82176
inclination (°)4.01879
eccentricity0.0846414
perihelion distance (AU)2.1135266
Tisserand w.r.t. Jupiter3.6
ΔV w.r.t. Earth (km/sec)9.1
semimajor axis (AU)2.3089602
mean anomaly (°)153.70799
mean daily motion (°/day)0.28091770
aphelion distance (AU)2.504
period (years)3.51
P-vector [x]-0.97721220
P-vector [y]-0.17708192
P-vector [z]-0.11703976
Q-vector [x]0.20664324
Q-vector [y]-0.91970501
Q-vector [z]-0.33382819
absolute magnitude17.28
phase slope0.15
uncertainty0
referenceMPO 778237
observations used373
oppositions14
arc length (days)7701
first opposition used2002
last opposition used2023
residual rms (arc-secs)0.80
perturbers coarse indicatorM-v
perturbers precise indicator003Ek
first observation date used2002-10-11.0
last observation date used2023-11-11.0
computer nameMPCLINUX
JD of orbit computation2456670.885154
perihelion JD uncertainty (days)7.5489E-05
argument of perihelion uncertainty (°)5.3786E-05
ascending node uncertainty (°)4.9744E-05
inclination uncertainty (°)3.7895E-06
eccentricity uncertainty 3.4368E-08
perihelion distance uncertainty (AU)8.0277E-08
Minimum Orbit Intersection Distances (in AU)
for orbit epoch: 2460200.5, reference: E2023-VL1
Mercury1.6858
Venus1.39658
Earth1.11264
Mars0.48515
Jupiter2.45504
Saturn6.67286
Uranus16.3159
Neptune27.3438

Observations

380 total observations over interval: 2002 10 11.290510 – 2023 11 11.252278
These data are available for download (format description).

Date (UT) J2000 RA J2000 Dec Magn Location Ref
2002 10 11.290510 23 20 22.747 +00 27 29.24 21.01 V 645 – Apache Point-Sloan Digital Sky Survey MPS 198758
2002 10 11.293982 23 20 22.608 +00 27 27.88 21.95   645 – Apache Point-Sloan Digital Sky Survey MPS 198758
2002 10 30.173130 23 13 20.331 -01 05 37.03 21.44 V 645 – Apache Point-Sloan Digital Sky Survey MPS 198758
2002 10 30.176602 23 13 20.298 -01 05 37.86 22.27   645 – Apache Point-Sloan Digital Sky Survey MPS 198758
2004 03 18.197610 07 43 23.131 +15 33 46.85 20.97 V 645 – Apache Point-Sloan Digital Sky Survey MPS 198758
2004 03 18.201082 07 43 23.205 +15 33 47.08 21.94   645 – Apache Point-Sloan Digital Sky Survey MPS 198758
2004 04 13.159110 08 03 22.184 +15 38 42.08 21.39 V 645 – Apache Point-Sloan Digital Sky Survey MPS 198758
2004 04 13.162582 08 03 22.398 +15 38 41.65 22.20   645 – Apache Point-Sloan Digital Sky Survey MPS 198758
2005 06 05.39344 19 58 55.48 -15 12 44.1 21.0 V 691 – Steward Observatory, Kitt Peak-Spacewatch MPS 136573
2005 06 05.41089 19 58 55.15 -15 12 42.1 20.8 V 691 – Steward Observatory, Kitt Peak-Spacewatch MPS 136573
2005 06 05.42827 19 58 54.82 -15 12 40.3 21.0 V 691 – Steward Observatory, Kitt Peak-Spacewatch MPS 136573
2005 06 10.41425 19 57 04.06 -15 03 56.7 20.9 V 691 – Steward Observatory, Kitt Peak-Spacewatch MPS 136573
2005 06 10.43168 19 57 03.56 -15 03 55.3 20.7 V 691 – Steward Observatory, Kitt Peak-Spacewatch MPS 136573
2005 06 10.44910 19 57 03.04 -15 03 53.7 20.7 V 691 – Steward Observatory, Kitt Peak-Spacewatch MPS 136573
2006 10 17.36201 03 49 04.08 +19 50 32.7 21.1 V G96 – Mt. Lemmon Survey MPS 198758
2006 10 17.36883 03 49 03.86 +19 50 31.4 20.5 V G96 – Mt. Lemmon Survey MPS 198758
2006 10 17.37571 03 49 03.64 +19 50 30.0 20.3 V G96 – Mt. Lemmon Survey MPS 198758
2006 10 17.38246 03 49 03.39 +19 50 28.2 20.5 V G96 – Mt. Lemmon Survey MPS 198758
2006 10 27.39405 03 42 10.44 +19 10 51.7 20.6 V G96 – Mt. Lemmon Survey MPS 198758
2006 10 27.40509 03 42 09.86 +19 10 48.6 20.5 V G96 – Mt. Lemmon Survey MPS 198758
2006 10 27.41620 03 42 09.28 +19 10 45.3 20.3 V G96 – Mt. Lemmon Survey MPS 198758
2006 10 27.42729 03 42 08.74 +19 10 42.6 20.7 V G96 – Mt. Lemmon Survey MPS 198758
2006 11 12.25012 03 27 04.10 +17 49 28.4 20.1 V 703 – Catalina Sky Survey MPS 187255
2006 11 12.25573 03 27 03.70 +17 49 25.7 19.8 V 703 – Catalina Sky Survey MPS 187255
2006 11 12.26139 03 27 03.38 +17 49 24.9 19.9 V 703 – Catalina Sky Survey MPS 187255
2006 11 12.26711 03 27 02.91 +17 49 23.0 20.1 V 703 – Catalina Sky Survey MPS 187255
2006 11 14.17981 03 25 03.10 +17 38 35.5   691 – Steward Observatory, Kitt Peak-Spacewatch MPS 187255
2006 11 14.19714 03 25 01.99 +17 38 29.5   691 – Steward Observatory, Kitt Peak-Spacewatch MPS 187255
2006 11 14.21446 03 25 00.86 +17 38 24.0   691 – Steward Observatory, Kitt Peak-Spacewatch MPS 187255
2006 11 21.17955 03 17 44.66 +16 58 47.4 20.5 V G96 – Mt. Lemmon Survey MPS 198758
2006 11 21.18848 03 17 44.05 +16 58 44.5 20.3 V G96 – Mt. Lemmon Survey MPS 198758
2006 11 21.19748 03 17 43.51 +16 58 41.4 20.4 V G96 – Mt. Lemmon Survey MPS 198758
2006 11 21.20671 03 17 42.90 +16 58 38.3 20.4 V G96 – Mt. Lemmon Survey MPS 198758
2006 12 14.20996 02 58 34.32 +15 07 51.4 20.7 V G96 – Mt. Lemmon Survey MPS 198758
2006 12 14.21773 02 58 33.99 +15 07 49.8 20.5 V G96 – Mt. Lemmon Survey MPS 198758
2006 12 14.22527 02 58 33.78 +15 07 47.8 20.8 V G96 – Mt. Lemmon Survey MPS 198758
2006 12 14.23293 02 58 33.52 +15 07 46.7 20.3 V G96 – Mt. Lemmon Survey MPS 198758
2008 03 30.29821 13 54 17.95 -14 42 53.6 19.8 V 691 – Steward Observatory, Kitt Peak-Spacewatch MPS 244768
2008 03 30.31582 13 54 17.18 -14 42 47.9 19.8 V 691 – Steward Observatory, Kitt Peak-Spacewatch MPS 244768
2008 03 30.33345 13 54 16.40 -14 42 42.1 19.9 V 691 – Steward Observatory, Kitt Peak-Spacewatch MPS 244768
2008 04 04.37486 13 50 31.20 -14 12 20.8 19.9 V 703 – Catalina Sky Survey MPS 245796
2008 04 04.38251 13 50 30.80 -14 12 16.9 19.9 V 703 – Catalina Sky Survey MPS 245796
2008 04 04.39018 13 50 30.33 -14 12 13.5 19.8 V 703 – Catalina Sky Survey MPS 245796
2008 04 04.39791 13 50 29.97 -14 12 10.1 19.8 V 703 – Catalina Sky Survey MPS 245796
2008 04 06.35968 13 48 55.10 -13 59 14.7 18.7 C 704 – Lincoln Laboratory ETS, New Mexico MPS 288581
2008 04 06.37141 13 48 54.29 -13 59 08.7 19.3 C 704 – Lincoln Laboratory ETS, New Mexico MPS 288581
2008 04 06.38306 13 48 53.69 -13 59 05.3 19.5 C 704 – Lincoln Laboratory ETS, New Mexico MPS 288581
2008 04 06.39470 13 48 53.02 -13 58 59.7 19.4 C 704 – Lincoln Laboratory ETS, New Mexico MPS 288581
2008 04 27.25505 13 30 47.01 -11 21 16.1 19.6 V G96 – Mt. Lemmon Survey MPS 248892
2008 04 27.25966 13 30 46.76 -11 21 13.5 19.4 V G96 – Mt. Lemmon Survey MPS 248892
2008 04 27.26427 13 30 46.51 -11 21 11.8 19.5 V G96 – Mt. Lemmon Survey MPS 248892
2008 04 27.26888 13 30 46.29 -11 21 09.5 19.5 V G96 – Mt. Lemmon Survey MPS 248892
2008 04 28.30507 13 29 56.40 -11 13 14.5 19.4   704 – Lincoln Laboratory ETS, New Mexico MPS 248892
2008 04 28.31567 13 29 55.88 -11 13 10.6 19.7   704 – Lincoln Laboratory ETS, New Mexico MPS 248892
2008 04 28.34752 13 29 54.27 -11 12 55.1 19.4   704 – Lincoln Laboratory ETS, New Mexico MPS 248892
2008 05 05.25189 13 24 53.35 -10 22 49.4 19.8 V G96 – Mt. Lemmon Survey MPS 249764
2008 05 05.25999 13 24 53.02 -10 22 46.0 19.9 V G96 – Mt. Lemmon Survey MPS 249764
2008 05 05.26809 13 24 52.70 -10 22 42.7 19.8 V G96 – Mt. Lemmon Survey MPS 249764
2008 05 05.27627 13 24 52.34 -10 22 39.5 19.9 V G96 – Mt. Lemmon Survey MPS 249764
2010 12 05.40582 08 27 27.32 +13 45 17.3 21.1 V G96 – Mt. Lemmon Survey MPS 362363
2010 12 05.41284 08 27 27.28 +13 45 15.7 20.6 V G96 – Mt. Lemmon Survey MPS 362363
2010 12 05.41982 08 27 27.28 +13 45 14.5 20.9 V G96 – Mt. Lemmon Survey MPS 362363
2010 12 05.42674 08 27 27.28 +13 45 13.1 20.8 V G96 – Mt. Lemmon Survey MPS 362363
2011 01 02.30155 08 15 08.78 +13 10 23.9 20.9 V 703 – Catalina Sky Survey MPS 365155
2011 01 02.30904 08 15 08.35 +13 10 23.6 19.0 V 703 – Catalina Sky Survey MPS 365155
2011 01 02.31656 08 15 08.06 +13 10 25.1 19.4 V 703 – Catalina Sky Survey MPS 365155
2011 01 02.32410 08 15 07.56 +13 10 25.3 20.0 V 703 – Catalina Sky Survey MPS 365155
2011 05 07.14679 08 24 59.58 +15 15 39.6 21.9 V G96 – Mt. Lemmon Survey MPS 382927
2011 05 07.15499 08 25 00.30 +15 15 37.5 20.3 V G96 – Mt. Lemmon Survey MPS 382927
2011 05 07.16315 08 25 00.94 +15 15 35.6 21.7 V G96 – Mt. Lemmon Survey MPS 382927
2011 05 07.17131 08 25 01.77 +15 15 33.8 21.1 V G96 – Mt. Lemmon Survey MPS 382927
2012 08 08.34849 18 55 16.368 -16 29 06.74 20.9 g F51 – Pan-STARRS 1, Haleakala MPS 429266
2012 08 08.35878 18 55 16.013 -16 29 08.06 21.0 g F51 – Pan-STARRS 1, Haleakala MPS 429266
2012 08 08.36972 18 55 15.648 -16 29 09.48 20.4 r F51 – Pan-STARRS 1, Haleakala MPS 429266
2013 09 14.40904 03 41 56.72 +20 23 13.3 22.0 V G96 – Mt. Lemmon Survey MPS 477324
2013 09 14.41744 03 41 56.85 +20 23 13.2 21.4 V G96 – Mt. Lemmon Survey MPS 477324
2013 09 14.42596 03 41 57.04 +20 23 13.7 21.3 V G96 – Mt. Lemmon Survey MPS 477324
2013 09 14.43448 03 41 57.27 +20 23 13.9 22.0 V G96 – Mt. Lemmon Survey MPS 477324
2013 10 14.44190 03 39 33.45 +19 35 01.1 20.4 V G96 – Mt. Lemmon Survey MPS 481723
2013 10 14.44801 03 39 33.25 +19 35 00.0 21.0 V G96 – Mt. Lemmon Survey MPS 481723
2013 10 14.45388 03 39 33.06 +19 34 58.4 20.5 V G96 – Mt. Lemmon Survey MPS 481723
2013 10 14.45976 03 39 32.84 +19 34 57.8 20.7 V G96 – Mt. Lemmon Survey MPS 481723
2013 10 25.37211 03 32 05.730 +18 50 59.29 20.7 r F51 – Pan-STARRS 1, Haleakala MPS 484794
2013 10 25.38443 03 32 05.106 +18 50 55.76 20.5 r F51 – Pan-STARRS 1, Haleakala MPS 484794
2013 10 25.47678 03 32 00.09 +18 50 28.7 20.4 V G96 – Mt. Lemmon Survey MPS 483248
2013 10 25.48151 03 31 59.84 +18 50 27.2 20.4 V G96 – Mt. Lemmon Survey MPS 483248
2013 10 25.48625 03 31 59.60 +18 50 26.3 20.4 V G96 – Mt. Lemmon Survey MPS 483248
2013 10 25.49097 03 31 59.36 +18 50 25.1 20.3 V G96 – Mt. Lemmon Survey MPS 483248
2013 11 25.64581 03 01 23.23 +15 57 18.4 21.6 R D29 – Purple Mountain Observatory, XuYi Station MPS 489513
2013 11 25.67762 03 01 21.34 +15 57 07.6 21.2 R D29 – Purple Mountain Observatory, XuYi Station MPS 489513
